Pagina principale
METAR-TAF:

METAR-TAF

Aeroporti :

Torino, Italia

Bric della Croce

latitudine: 45-02N, longitudine: 007-44E, altezza: 709 m

Osservazione

Il bollettino è stato emesso 1 ora e 0 minuti fa, alle 14:55 UTC
Vento calmo
Temperature 12°C
Umidità 67%
Pressione 1011 hPa
Visibilità 10 km o più
nessuna nube inferiore a 1500 m e nessun cumulonembo

METAR: LIMK 191455Z 00000KT CAVOK 12/06 Q1011 RMK FEW FEW200 VAL FOSCHIA VIS MIN 9999

Ora: 16:55 (15:55 UTC)


TAF: mancante

Osservazioni e previsioni meteorologiche di più di 4000 aeroporti (messaggi METAR e TAF).

Le stazioni disponibili sono rappresentate dai dischi gialli e rossi sulla carta.

Puntare il mouse per vedere il nome della stazione.

Clicca sopra per visualizzare le osservazioni e previsioni meteorologiche.

Per cambiare la mappa : fare clic sui pulsanti verdi con una croce nera per ingrandire, il pulsante verde con un trattino per diminuire, o sulla freccia verde per le mappe adiacenti.


METAR-TAF: